Zurück zum Katalog

STARLINK-6234

AktivKommunikationVLEO
NORAD 57331·PAYLOAD·🇺🇸 United States

Gestartet Jul 16, 2023 von Cape Canaveral Space Force Station

Loading…

Nächste Überflüge (nächste 24 Stunden)

TLE

AktuellSource: CelesTrak SupGP

Epoche: Sep 14, 2026, 21:36 UTC

1 57331C 23099D   26257.90048611  .00019030  00000+0  68940-3 0  2572
2 57331  43.0008 263.7346 0001851 265.0095 147.0142 15.27562240    13

Verfolge STARLINK-6234 in Echtzeit mit AllMySat

Download on the App Store